STARLINK-11149, 60041

Orbit data source: Space-Track

STARLINK-11149, 60041 is a payload satellite owned by SpaceX/Seattle (US) in LEO that was launched on Sat, 08 Jun 2024 UTC via an FALCON 9 launch vehicle from the Air Force Western Test Range (AFWTR). Payload-class satellites include a variety of spacecraft equipped with specific instruments for various scientific and technological missions. These include communications satellites like Starlink; space stations such as the ISS; scientific satellites like the Hubble; Earth observation satellites from companies like Planet Labs, Umbra, and HawkEye 360; GPS; miniature CubeSats for education and research; and military/defense satellites.

Loading next visibility...
Identifier
60041, 2024-112D
Orbit
LEO
Country
Flag of USUS
Related business
Manufacturer
SpaceX/Seattle
Mission
Operational Commercial Communications
Bus & Motor
STARLINK V2MD, Unknown motor
Mass
960 kg wet, ~910 kg dry
Launch date (UTC)
2024-06-08 (2 years ago)
Launch vehicle
FALCON 9
Launch site
Air Force Western Test Range (AFWTR)
Object type
Payload
Rocket body
Debris
Shape & HBR
Box + 2 Pan, 18.1 m
Radar Cross Section
36.964 m², Large (>1 m²)

Expand to show TLE details & history
Last TLE update: 1 day ago

TLE from 1 day ago
0 STARLINK-11149
1 60041U 24112D   26170.59122629 -.00002042  00000-0 -12005-4 0  9995
2 60041  53.1619 124.0927 0001595  97.8821 262.2378 15.69686515116985
Epoch: 2026-06-19T14:11Z
TLE epoch observation values (Epoch: 2026-06-19T14:11:21.951Z)
Latitude
-0.00002°
Longitude
3.43322°
Altitude
360.855 km
Speed
7.694 km/s
True Right ascension
08h 16m 22s
True Declination
0° 00' 00"
Sunlit
Object was in daylight at epoch
Visualization orbit readout
Latitude
Unknown
Longitude
Unknown
Altitude
Unknown
Speed
Unknown
Apparent Right ascension
Unknown
Apparent Declination
Unknown
Sunlit
N/A
Visualization observer readout
Local Sidereal Time
08:32:59
Azimuth
Unknown
Elevation
Unknown
Doppler factor
Unknown
Orbital elements
Apogee altitude
361.129 km
Perigee altitude
358.98 km
Semi-major axis
6,738.191 km
Eccentricity
0.00016
Inclination
53.1619°
RAAN
124.0927°
Arg. of periapsis
97.8821°
True anomaly
262.21969°
Mean anomaly
262.2378°
Eccentric anomaly
262.22875°
Mean motion
3.92399 °/min
Orbital period
91.74 mins
BSTAR
-0.000012005
Loading maneuver chart data...
Computing Atmospheric mass density...
Loading historical data...
Loading historical data...
Loading historical data...
Loading historical data...
Loading historical data...
Loading historical data...
Loading historical data...

Documentation

Showing up to 5 results
|